Location: Banksville Park
(38.5557°N, 75.1182°W)
Time: 21:27:57
(UTC+00:00)

Cosmos 2228 Rocket - Pass Details

Date: 19 September 2020
Orbit: 619 x 651 km, 82.5° (Epoch: 20 October)

Event Time Altitude Azimuth Distance (km) Brightness Sun altitude
Exits shadow 08:23:47 48° 104° (ESE) 813 3.8 -27.6°
Maximum altitude 08:24:00 48° 93° (E) 807 3.9 -27.6°
Drops below altitude 10° 08:28:15 10° 19° (NNE) 1,993 6.2 -26.8°
Sets 08:30:32 0° 14° (NNE) 2,905 7.0 -26.4°
